Tracking 20943 objects as of 16-Jul-2020
HD Live streaming from Space Station
objects crossing your sky now

MOLNIYA 3-47

Track MOLNIYA 3-47 now!
MOLNIYA 3-47 is classified as:


NORAD ID: 23642
Int'l Code: 1995-042A
Perigee: 2,043.0 km
Apogee: 38,095.7 km
Inclination: 63.3 °
Period: 713.1 minutes
Semi major axis: 26440 km
RCS: 13.479 m2 (large)
Launch date: August 9, 1995
Source: Commonwealth of Independent States (former USSR) (CIS)
Launch site: PLESETSK MISSILE AND SPACE COMPLEX (PKMTR)
aabbcc
Your satellite tracking list
Your tracking list is empty




NASA's NSSDC Master Catalog

Two Line Element Set (TLE):
1 23642U 95042A   20197.13887968  .00001016  00000-0  00000+0 0  9993
2 23642  63.2582 152.8965 6817731 288.1856  12.5779  2.01930160182927
Source of the keplerian elements: AFSPC